STARLINK-36844, 68117

Orbit data source: Space-Track

STARLINK-36844, 68117 is a payload satellite owned by SpaceX/Seattle (US) in SSO that was launched on Sun, 08 Mar 2026 UTC via an FALCON 9 launch vehicle from the Air Force Western Test Range (AFWTR). Payload-class satellites include a variety of spacecraft equipped with specific instruments for various scientific and technological missions. These include communications satellites like Starlink; space stations such as the ISS; scientific satellites like the Hubble; Earth observation satellites from companies like Planet Labs, Umbra, and HawkEye 360; GPS; miniature CubeSats for education and research; and military/defense satellites.

Loading next visibility...
Identifier
68117, 2026-044S
Orbit
SSO
Country
Flag of USUS
Related business
Manufacturer
SpaceX/Seattle
Mission
Operational Commercial Communications
Bus & Motor
STARLINK V2MO, Unknown motor
Mass
575 kg wet, ~530 kg dry
Launch date (UTC)
2026-03-08 (6 months ago)
Launch vehicle
FALCON 9
Launch site
Air Force Western Test Range (AFWTR)
Object type
Payload
Rocket body
Debris
Shape & HBR
Box + 1 Pan, 17.7 m
Radar Cross Section
41.120 m², Large (>1 m²)

Expand to show TLE details & history
Last TLE update: 23 hours ago

TLE from 23 hours ago
0 STARLINK-36844
1 68117U 26044S   26246.43207326  .00005201  00000-0  16333-3 0  9993
2 68117  97.2855 205.6468 0001778  91.3229 268.8217 15.33444147 28821
Epoch: 2026-09-03T10:22Z
TLE epoch observation values (Epoch: 2026-09-03T10:22:11.129Z)
Latitude
-0.00008°
Longitude
67.5301°
Altitude
468.683 km
Speed
7.632 km/s
True Right ascension
13h 42m 35s
True Declination
0° 00' 00"
Sunlit
Object was in daylight at epoch
Visualization orbit readout
Latitude
Unknown
Longitude
Unknown
Altitude
Unknown
Speed
Unknown
Apparent Right ascension
Unknown
Apparent Declination
Unknown
Sunlit
N/A
Visualization observer readout
Local Sidereal Time
01:43:40
Azimuth
Unknown
Elevation
Unknown
Doppler factor
Unknown
Orbital elements
Apogee altitude
463.705 km
Perigee altitude
461.272 km
Semi-major axis
6,840.625 km
Eccentricity
0.00018
Inclination
97.2855°
RAAN
205.6468°
Arg. of periapsis
91.3229°
True anomaly
268.80133°
Mean anomaly
268.8217°
Eccentric anomaly
268.81152°
Mean motion
3.83618 °/min
Orbital period
93.84 mins
BSTAR
0.00016333
Loading maneuver chart data...
Computing Atmospheric mass density...
Loading historical data...
Loading historical data...
Loading historical data...
Loading historical data...
Loading historical data...
Loading historical data...
Loading historical data...

Documentation

Showing up to 5 results
|